[[{"header":{"parameterUnit":"m.s-1","parameterCategory":1,"la1":30.2991,"la2":30.254,"lo1":-89.0895,"lo2":-89.0444,"dy":0.0017,"dx":0.0017,"nx":28,"ny":28,"refTime":"2023-08-16T03:00:00:Z","depth":0,"parameterNumber":2,"parameterNumberName":"U-component_of_WINDS"},"data":[0,0,0,0,0,0,0,0,0,0,0,0,0,0,0,0,0,0,0,0,0,0,0,0,0,0,0,0,0,0,0,0,0,0,0,0,0,0,0,0,0,0,0,0,0,0,0,0,0,0,0,0,0,0,0,0,0,0,0.4931,0.493,0,0.489,0.4889,0.4889,0.4825,0.4824,0.4823,0.4822,0.4781,0.4781,0.4781,0,0,0,0,0,0,0,0,0,0,0,0,0,0.4954,0.4954,0.4931,0.493,0.493,0.489,0.4889,0.4889,0.4826,0.4824,0.4823,0.4821,0.4781,0.4781,0.4781,0,0,0,0,0,0,0,0,0,0,0,0,0,0.4932,0.4954,0.4931,0.4893,0.489,0.489,0.4889,0.4888,0.4826,0.4824,0.4822,0.4821,0.4781,0.4781,0.4781,0.4816,0,0,0.4781,0.4781,0,0,0,0,0,0,0,0,0.4933,0.4931,0.4899,0.4896,0.4892,0.4861,0.4883,0.4864,0.4826,0.485,0.4822,0.482,0.4809,0.4807,0.4803,0.4814,0.4812,0.4781,0.4781,0.4781,0.4781,0,0,0,0,0,0,0,0.4935,0.4932,0.4914,0.4899,0.4894,0.4879,0.4873,0.4879,0.484,0.4848,0.4843,0.4839,0.4807,0.4803,0.4802,0.4811,0.4781,0.4781,0.4781,0.4781,0.4845,0.4847,0,0,0,0,0,0,0.4942,0.4934,0.4916,0.4913,0.4909,0.488,0.4874,0.4872,0.484,0.4833,0.4841,0.4836,0.4804,0.4802,0.48,0.4836,0.4781,0.4781,0.4781,0.4844,0.4846,0.4848,0,0,0,0,0,0,0.4943,0.4941,0.4917,0.4922,0.4918,0.4881,0.488,0.4873,0.4869,0.4834,0.4827,0.4844,0.4803,0.48,0.4811,0.4834,0.4781,0.4781,0.4842,0.4844,0.4847,0.4909,0,0,0,0,0,0,0.4944,0.4941,0.4954,0.4923,0.4918,0.493,0.4881,0.4873,0.4869,0.4863,0.4835,0.4829,0.4801,0.4812,0.4811,0.4833,0.4781,0.4839,0.4843,0.4846,0.4905,0.4913,0.4921,0,0,0,0,0,0.4945,0.4974,0.4955,0.4953,0.4933,0.4931,0.4928,0.4895,0.4871,0.4883,0.486,0.483,0.4832,0.4814,0.4813,0.4834,0.4838,0.4842,0.4846,0.4901,0.4912,0.4921,0,0,0,0,0,0,0.501,0.4969,0.4948,0.4968,0.4954,0.4921,0.4935,0.4908,0.49,0.4895,0.4854,0.4849,0.4865,0.4851,0.4831,0.4864,0.483,0.4834,0.4873,0.4882,0.489,0.4893,0.4781,0,0,0,0,0,0.5026,0.5028,0.4993,0.5014,0.5008,0.4973,0.4971,0.4946,0.4929,0.4923,0.4901,0.4887,0.4883,0.4882,0.4878,0.4903,0.4895,0.4917,0.4925,0.4932,0.4935,0.4945,0.4954,0.486,0.486,0.486,0,0,0.5061,0.5039,0.5043,0.5027,0.5012,0.5014,0.4968,0.4973,0.4974,0.4924,0.4933,0.4916,0.4897,0.4915,0.4922,0.4904,0.4959,0.4937,0.4942,0.4942,0.495,0.4959,0.4967,0.4863,0.4862,0.4862,0,0,0.5124,0.5109,0.5124,0.511,0.5088,0.5065,0.5068,0.5039,0.5026,0.5034,0.4996,0.4997,0.4993,0.498,0.4973,0.503,0.5001,0.503,0.5071,0.5082,0.5089,0.5095,0.5114,0.5121,0.5034,0.5034,0.5034,0,0.517,0.5172,0.5135,0.5141,0.5135,0.5089,0.5103,0.5092,0.5071,0.5067,0.5047,0.5039,0.5023,0.5036,0.505,0.5047,0.5049,0.5032,0.5091,0.5097,0.5102,0.5119,0.5127,0.5037,0.5037,0.5036,0.5036,0,0.5228,0.5229,0.5244,0.5223,0.5218,0.5229,0.5194,0.5193,0.5169,0.5147,0.5155,0.5134,0.5123,0.5125,0.5102,0.5135,0.5124,0.5098,0.5063,0.5115,0.5131,0.5137,0.5042,0.5041,0.504,0.5039,0,0,0.5331,0.5289,0.5295,0.5284,0.5256,0.5256,0.5265,0.5253,0.5253,0.524,0.5244,0.5241,0.5216,0.5209,0.5184,0.5193,0.5237,0.5166,0.5164,0.5178,0.527,0.5288,0.5296,0.5218,0.5219,0.522,0.5271,0,0.5388,0.5399,0.5365,0.5384,0.5384,0.534,0.5347,0.5331,0.5311,0.5308,0.5285,0.5283,0.5252,0.5246,0.5254,0.523,0.5255,0.5226,0.5222,0.5222,0.5226,0.5305,0.5325,0.5373,0.5277,0.5278,0.5278,0,0.5456,0.5444,0.5463,0.5432,0.5431,0.5438,0.5424,0.5422,0.5402,0.5386,0.5377,0.5347,0.5352,0.5319,0.5325,0.5306,0.5302,0.5291,0.5292,0.5289,0.5252,0.5303,0.5388,0.5395,0.5288,0.5287,0.5286,0,0.5527,0.5517,0.5526,0.5518,0.5483,0.5488,0.5474,0.5452,0.5447,0.5435,0.5431,0.542,0.5414,0.5406,0.5374,0.5354,0.5384,0.5348,0.537,0.5371,0.5377,0.5377,0.5462,0.5378,0.5378,0.5377,0.5377,0,0.5593,0.5606,0.5557,0.5563,0.5575,0.5537,0.555,0.5532,0.5513,0.5513,0.5475,0.5477,0.5435,0.5432,0.5408,0.5415,0.5413,0.54,0.5393,0.5403,0.5404,0.5399,0.5394,0.5379,0.5379,0.5379,0.5378,0,0.5674,0.5642,0.5649,0.5615,0.5607,0.5617,0.5588,0.5591,0.5568,0.557,0.5568,0.5532,0.5526,0.5494,0.5481,0.5464,0.548,0.5467,0.5486,0.5482,0.5505,0.5502,0.5588,0.5596,0.5508,0.5509,0.551,0,0.5718,0.5726,0.5693,0.569,0.5677,0.5674,0.5668,0.563,0.5625,0.5602,0.5608,0.5599,0.559,0.5583,0.5555,0.5545,0.553,0.5561,0.5529,0.5537,0.5529,0.5528,0.5528,0.5568,0.5569,0.557,0.5571,0,0.5798,0.5781,0.5773,0.576,0.5754,0.5742,0.5727,0.5727,0.5686,0.5682,0.5675,0.5668,0.5654,0.5645,0.5629,0.5614,0.5585,0.5581,0.5585,0.5594,0.5604,0.5597,0.5504,0.5579,0.5578,0.5578,0.5577,0.5577,0.586,0.5865,0.5841,0.5833,0.5818,0.5806,0.5806,0.5783,0.5776,0.5761,0.574,0.5735,0.5714,0.569,0.5677,0.5673,0.5657,0.5663,0.5665,0.5666,0.567,0.5606,0.567,0.567,0.567,0.567,0.5669,0,0.5936,0.5919,0.5912,0.5892,0.5886,0.5859,0.5841,0.5838,0.5834,0.5816,0.5807,0.5799,0.5789,0.5761,0.5749,0.5751,0.5737,0.5749,0.5747,0.5744,0.5687,0.5684,0.576,0.576,0.576,0.576,0.576,0.576,0.5975,0.5981,0.5961,0.5959,0.5941,0.5936,0.5928,0.5915,0.59,0.5892,0.5884,0.5865,0.5843,0.5828,0.5818,0.581,0.5807,0.5823,0.581,0.5757,0.5748,0.574,0.5737,0.5823,0.5823,0.5867,0.5868,0.5868]},{"header":{"parameterUnit":"m.s-1","parameterCategory":1,"la1":30.2991,"la2":30.254,"lo1":-89.0895,"lo2":-89.0444,"dy":0.0017,"dx":0.0017,"nx":28,"ny":28,"refTime":"2023-08-16T03:00:00:Z","depth":0,"parameterNumber":3,"parameterNumberName":"V-component_of_WINDS"},"data":[0,0,0,0,0,0,0,0,0,0,0,0,0,0,0,0,0,0,0,0,0,0,0,0,0,0,0,0,0,0,0,0,0,0,0,0,0,0,0,0,0,0,0,0,0,0,0,0,0,0,0,0,0,0,0,0,0,0,0.4791,0.479,0,0.4672,0.4671,0.4669,0.4558,0.4556,0.4555,0.4554,0.4429,0.4427,0.4425,0,0,0,0,0,0,0,0,0,0,0,0,0,0.4919,0.4918,0.4791,0.479,0.4788,0.4672,0.467,0.4669,0.4558,0.4556,0.4555,0.4553,0.443,0.4427,0.4425,0,0,0,0,0,0,0,0,0,0,0,0,0,0.4838,0.4917,0.4791,0.4719,0.4711,0.4672,0.467,0.4668,0.4558,0.4556,0.4554,0.4552,0.4431,0.4428,0.4425,0.4447,0,0,0.4415,0.4414,0,0,0,0,0,0,0,0,0.4843,0.4834,0.4731,0.4724,0.4715,0.4628,0.467,0.4594,0.4559,0.4616,0.4554,0.4551,0.4497,0.4488,0.447,0.4441,0.4436,0.4415,0.4413,0.4412,0.4411,0,0,0,0,0,0,0,0.4849,0.4838,0.4744,0.473,0.472,0.4691,0.4677,0.4655,0.4569,0.4611,0.4603,0.459,0.4492,0.4473,0.4466,0.4434,0.4415,0.4412,0.441,0.4409,0.4415,0.4417,0,0,0,0,0,0,0.4866,0.4844,0.4748,0.474,0.4775,0.4691,0.4675,0.4658,0.4569,0.4554,0.4592,0.4586,0.448,0.447,0.4462,0.4481,0.4412,0.4409,0.4407,0.4413,0.4416,0.4418,0,0,0,0,0,0,0.4869,0.4858,0.4752,0.479,0.4774,0.4691,0.4672,0.4657,0.4638,0.4555,0.4539,0.4589,0.4478,0.4466,0.4451,0.4475,0.4408,0.4405,0.4411,0.4414,0.4417,0.4521,0,0,0,0,0,0,0.4873,0.486,0.4869,0.4791,0.4772,0.4746,0.4673,0.4656,0.4633,0.4623,0.4548,0.4534,0.4475,0.4456,0.4448,0.447,0.4402,0.4408,0.4412,0.4416,0.4515,0.4527,0.4538,0,0,0,0,0,0.4878,0.4903,0.487,0.4859,0.4782,0.4747,0.4737,0.467,0.4636,0.4643,0.4589,0.4536,0.4474,0.4456,0.4446,0.4467,0.4407,0.4411,0.4416,0.451,0.4525,0.4537,0,0,0,0,0,0,0.4985,0.4891,0.4854,0.4854,0.481,0.4729,0.4736,0.4688,0.4651,0.4644,0.4561,0.4545,0.4539,0.4501,0.4483,0.4483,0.4433,0.4436,0.4508,0.4521,0.4533,0.4542,0.44,0,0,0,0,0,0.5009,0.499,0.4908,0.4916,0.4896,0.482,0.4803,0.4755,0.4705,0.4685,0.4631,0.4584,0.4553,0.4535,0.4503,0.4509,0.449,0.4518,0.4529,0.4539,0.4542,0.4542,0.4553,0.4433,0.4433,0.4433,0,0,0.5058,0.5004,0.4997,0.4936,0.4896,0.4877,0.4805,0.4788,0.4773,0.4682,0.4665,0.4624,0.4566,0.4561,0.4557,0.4529,0.4571,0.4545,0.4553,0.4551,0.4547,0.4559,0.4569,0.4436,0.4435,0.4435,0,0,0.5137,0.5095,0.5096,0.5057,0.4998,0.4947,0.4948,0.4873,0.4843,0.4824,0.4756,0.4736,0.4685,0.4647,0.462,0.4683,0.4632,0.4675,0.4734,0.4734,0.4744,0.4752,0.4774,0.4783,0.4679,0.4679,0.4679,0,0.5204,0.5174,0.5103,0.509,0.5065,0.4983,0.4983,0.4948,0.4881,0.4865,0.4836,0.477,0.4725,0.471,0.4726,0.4707,0.4704,0.4683,0.4748,0.4756,0.4762,0.4782,0.4791,0.4684,0.4684,0.4683,0.4683,0,0.526,0.524,0.5248,0.5186,0.5162,0.5156,0.5082,0.5066,0.502,0.4972,0.4953,0.4896,0.4851,0.4843,0.4798,0.4822,0.4806,0.4764,0.4712,0.478,0.4798,0.4805,0.4692,0.469,0.4689,0.4687,0,0,0.5404,0.5302,0.5306,0.5276,0.5204,0.5186,0.5176,0.5132,0.5119,0.5075,0.5063,0.5022,0.4982,0.4953,0.4902,0.4902,0.4955,0.4859,0.4856,0.4879,0.4976,0.5009,0.5019,0.4921,0.4922,0.4923,0.4981,0,0.547,0.5448,0.5383,0.538,0.5359,0.528,0.5271,0.5225,0.518,0.5155,0.5104,0.5076,0.5025,0.5007,0.5004,0.495,0.4974,0.4944,0.4908,0.4908,0.4926,0.5028,0.5063,0.5121,0.4988,0.4989,0.4989,0,0.5545,0.5507,0.5503,0.543,0.5419,0.5412,0.5366,0.5344,0.5289,0.5256,0.5223,0.5167,0.515,0.5102,0.5076,0.5058,0.5039,0.501,0.5011,0.5005,0.4953,0.5025,0.5138,0.5147,0.4999,0.4999,0.4998,0,0.565,0.5597,0.5587,0.5565,0.548,0.5477,0.5441,0.5385,0.5362,0.5322,0.5306,0.5263,0.524,0.5208,0.5141,0.5112,0.5123,0.507,0.5094,0.5096,0.51,0.5101,0.5212,0.5089,0.5088,0.5088,0.5088,0,0.5732,0.5732,0.5633,0.5628,0.5625,0.5549,0.5548,0.5505,0.5455,0.5438,0.5367,0.5352,0.5265,0.524,0.5187,0.5174,0.5164,0.5136,0.5122,0.5143,0.5146,0.5129,0.5123,0.5091,0.509,0.509,0.5089,0,0.5849,0.5783,0.5767,0.5688,0.5668,0.567,0.5602,0.5592,0.5542,0.5522,0.5512,0.5434,0.54,0.5331,0.5278,0.5243,0.5242,0.5217,0.5261,0.5252,0.5281,0.5279,0.5384,0.5394,0.5265,0.5267,0.5268,0,0.5905,0.5903,0.5825,0.5809,0.5776,0.5751,0.5728,0.5653,0.5631,0.5569,0.5566,0.5528,0.5493,0.5443,0.538,0.534,0.5313,0.5353,0.5306,0.5327,0.5313,0.5314,0.5313,0.5363,0.5365,0.5366,0.5368,0,0.6012,0.5979,0.5949,0.5907,0.5881,0.5844,0.5803,0.5794,0.5709,0.5688,0.5653,0.5627,0.5573,0.5535,0.5485,0.5446,0.5393,0.5383,0.5386,0.5407,0.5433,0.5419,0.5289,0.5381,0.5379,0.5378,0.5378,0.5377,0.6099,0.6094,0.6038,0.6006,0.5967,0.5931,0.5918,0.5866,0.5837,0.5788,0.5745,0.5714,0.5658,0.5585,0.555,0.5524,0.5498,0.5503,0.5504,0.5507,0.5515,0.5437,0.5515,0.5514,0.5514,0.5514,0.5513,0,0.6202,0.6162,0.6134,0.6079,0.6054,0.6006,0.5958,0.594,0.5914,0.5867,0.5834,0.5794,0.5757,0.5691,0.5648,0.564,0.5614,0.5631,0.5631,0.5623,0.5542,0.5543,0.5652,0.5652,0.5652,0.5652,0.5652,0.5652,0.6253,0.6241,0.6202,0.6169,0.6128,0.6099,0.6075,0.6041,0.6002,0.5962,0.5931,0.5888,0.5833,0.5785,0.5748,0.573,0.5717,0.5742,0.5716,0.5641,0.5628,0.5616,0.5617,0.574,0.574,0.5798,0.5799,0.58]}]]